• en Suisse
  • Liste des pays
  • À 7 jours
  • Température de l'eau
  • Carte satellitaire
  • Carte météo
  • Widgets météo
  • user-avatar
    Se connecter

    Météo par heure à Ocotal

    Ce jour, 15 Décembre, Vendredi

    Heure Température Précipitation Vent Pression Humidité
    00:00 +20°C° 0 mm 1 m/s 708 mmHg 93%
    01:00 +20°C° 0 mm 1 m/s 708 mmHg 94%
    02:00 +20°C° 0 mm 1 m/s 708 mmHg 94%
    03:00 +20°C° 0 mm 1 m/s 707 mmHg 94%
    04:00 +20°C° 0 mm 1 m/s 707 mmHg 94%
    05:00 +20°C° 0 mm 1 m/s 708 mmHg 94%
    06:00 +20°C° 0 mm 1 m/s 708 mmHg 94%
    07:00 +21°C° 0 mm 2 m/s 708 mmHg 86%
    08:00 +24°C° 0 mm 2 m/s 709 mmHg 78%
    09:00 +26°C° 0 mm 2 m/s 709 mmHg 70%
    10:00 +27°C° 0 mm 2 m/s 709 mmHg 67%
    11:00 +28°C° 0 mm 3 m/s 709 mmHg 64%
    12:00 +29°C° 0 mm 3 m/s 708 mmHg 61%
    13:00 +29°C° 0 mm 3 m/s 708 mmHg 60%
    14:00 +29°C° 0 mm 3 m/s 707 mmHg 59%
    15:00 +29°C° 0 mm 3 m/s 707 mmHg 58%
    16:00 +27°C° 0 mm 2 m/s 707 mmHg 66%
    17:00 +25°C° 0 mm 2 m/s 707 mmHg 75%
    18:00 +24°C° 0 mm 1 m/s 707 mmHg 83%
    19:00 +23°C° 0 mm 1 m/s 707 mmHg 86%
    20:00 +22°C° 0 mm 1 m/s 708 mmHg 89%
    21:00 +22°C° 0 mm 1 m/s 709 mmHg 92%
    22:00 +21°C° 0 mm 1 m/s 709 mmHg 93%
    23:00 +21°C° 0 mm 1 m/s 709 mmHg 94%

    Demain, 16 Décembre, Samedi

    Heure Température Précipitation Vent Pression Humidité
    00:00 +21°C° 0 mm 1 m/s 709 mmHg 95%
    01:00 +21°C° 0 mm 1 m/s 708 mmHg 95%
    02:00 +21°C° 0 mm 1 m/s 708 mmHg 96%
    03:00 +21°C° 0 mm 1 m/s 708 mmHg 96%
    04:00 +21°C° 0 mm 1 m/s 708 mmHg 95%
    05:00 +21°C° 0 mm 1 m/s 708 mmHg 94%
    06:00 +22°C° 0 mm 1 m/s 708 mmHg 94%
    07:00 +23°C° 0 mm 2 m/s 709 mmHg 88%
    08:00 +24°C° 0 mm 3 m/s 710 mmHg 83%
    09:00 +25°C° 0 mm 3 m/s 710 mmHg 77%
    10:00 +26°C° 0,1 mm 3 m/s 710 mmHg 75%
    11:00 +27°C° 0,1 mm 3 m/s 709 mmHg 72%
    12:00 +27°C° 0,1 mm 4 m/s 709 mmHg 70%
    13:00 +28°C° 0 mm 4 m/s 708 mmHg 66%
    14:00 +28°C° 0 mm 4 m/s 708 mmHg 62%
    15:00 +29°C° 0 mm 4 m/s 707 mmHg 58%
    16:00 +27°C° 0 mm 3 m/s 707 mmHg 64%
    17:00 +26°C° 0 mm 3 m/s 707 mmHg 70%
    18:00 +24°C° 0 mm 2 m/s 708 mmHg 75%
    19:00 +23°C° 0 mm 2 m/s 708 mmHg 79%
    20:00 +21°C° 0 mm 2 m/s 708 mmHg 83%
    21:00 +20°C° 0 mm 2 m/s 709 mmHg 87%
    22:00 +20°C° 0 mm 2 m/s 709 mmHg 90%
    23:00 +19°C° 0 mm 2 m/s 709 mmHg 92%

    Après-demain, 17 Décembre, Dimanche

    Heure Température Précipitation Vent Pression Humidité
    00:00 +19°C° 0 mm 2 m/s 709 mmHg 95%
    01:00 +19°C° 0 mm 2 m/s 708 mmHg 94%
    02:00 +20°C° 0 mm 2 m/s 708 mmHg 92%
    03:00 +20°C° 0 mm 2 m/s 708 mmHg 91%
    04:00 +20°C° 0,1 mm 2 m/s 708 mmHg 91%
    05:00 +20°C° 0,1 mm 2 m/s 708 mmHg 90%
    06:00 +20°C° 0,1 mm 2 m/s 708 mmHg 90%
    07:00 +21°C° 0 mm 2 m/s 709 mmHg 87%
    08:00 +22°C° 0 mm 3 m/s 710 mmHg 85%
    09:00 +24°C° 0 mm 3 m/s 710 mmHg 82%
    10:00 +24°C° 0,1 mm 3 m/s 710 mmHg 83%
    11:00 +24°C° 0,1 mm 3 m/s 709 mmHg 84%
    12:00 +24°C° 0,1 mm 3 m/s 708 mmHg 85%
    13:00 +24°C° 0,1 mm 3 m/s 708 mmHg 82%
    14:00 +25°C° 0,1 mm 3 m/s 707 mmHg 79%
    15:00 +26°C° 0,1 mm 3 m/s 707 mmHg 77%
    16:00 +25°C° 0,1 mm 3 m/s 707 mmHg 81%
    17:00 +24°C° 0,1 mm 3 m/s 707 mmHg 86%
    18:00 +23°C° 0,1 mm 2 m/s 707 mmHg 90%
    19:00 +23°C° 0,1 mm 2 m/s 708 mmHg 90%
    20:00 +23°C° 0,1 mm 2 m/s 709 mmHg 91%
    21:00 +23°C° 0,1 mm 2 m/s 709 mmHg 91%
    22:00 +23°C° 0,1 mm 2 m/s 709 mmHg 92%
    23:00 +21°C° 0,1 mm 2 m/s 709 mmHg 92%

    18 Décembre, Lundi

    Heure Température Précipitation Vent Pression Humidité
    00:00 +21°C° 0,1 mm 2 m/s 708 mmHg 93%
    01:00 +21°C° 0,1 mm 2 m/s 708 mmHg 93%
    02:00 +21°C° 0,1 mm 2 m/s 708 mmHg 93%
    03:00 +21°C° 0,1 mm 2 m/s 707 mmHg 93%
    04:00 +21°C° 0,1 mm 2 m/s 708 mmHg 93%
    05:00 +21°C° 0,1 mm 2 m/s 708 mmHg 93%
    06:00 +21°C° 0,1 mm 2 m/s 708 mmHg 93%
    07:00 +22°C° 0,1 mm 3 m/s 709 mmHg 89%
    08:00 +23°C° 0,1 mm 4 m/s 709 mmHg 84%
    09:00 +25°C° 0,1 mm 4 m/s 710 mmHg 80%
    10:00 +26°C° 0,1 mm 4 m/s 709 mmHg 73%
    11:00 +28°C° 0,1 mm 4 m/s 709 mmHg 67%
    12:00 +29°C° 0,1 mm 4 m/s 709 mmHg 61%
    13:00 +28°C° 0,1 mm 4 m/s 708 mmHg 63%
    14:00 +28°C° 0,1 mm 4 m/s 707 mmHg 64%
    15:00 +28°C° 0,1 mm 4 m/s 707 mmHg 65%
    16:00 +27°C° 0,1 mm 3 m/s 707 mmHg 73%
    17:00 +25°C° 0,1 mm 3 m/s 707 mmHg 80%
    18:00 +23°C° 0,1 mm 2 m/s 708 mmHg 87%
    19:00 +23°C° 0,1 mm 2 m/s 708 mmHg 89%
    20:00 +23°C° 0,1 mm 2 m/s 709 mmHg 91%
    21:00 +21°C° 0,1 mm 2 m/s 709 mmHg 92%
    22:00 +21°C° 0 mm 2 m/s 709 mmHg 93%
    23:00 +21°C° 0 mm 2 m/s 709 mmHg 94%

    19 Décembre, Mardi

    Heure Température Précipitation Vent Pression Humidité
    00:00 +20°C° 0 mm 2 m/s 708 mmHg 95%
    01:00 +20°C° 0 mm 2 m/s 708 mmHg 94%
    02:00 +20°C° 0 mm 2 m/s 708 mmHg 94%
    03:00 +20°C° 0 mm 2 m/s 707 mmHg 94%
    04:00 +21°C° 0 mm 2 m/s 708 mmHg 94%
    05:00 +21°C° 0 mm 2 m/s 708 mmHg 94%
    06:00 +21°C° 0 mm 2 m/s 708 mmHg 94%
    07:00 +23°C° 0 mm 2 m/s 709 mmHg 88%
    08:00 +24°C° 0 mm 3 m/s 709 mmHg 83%
    09:00 +25°C° 0 mm 4 m/s 710 mmHg 78%
    10:00 +26°C° 0,1 mm 4 m/s 709 mmHg 75%
    11:00 +27°C° 0,1 mm 4 m/s 709 mmHg 71%
    12:00 +28°C° 0,1 mm 4 m/s 708 mmHg 68%
    13:00 +28°C° 0 mm 4 m/s 708 mmHg 66%
    14:00 +28°C° 0 mm 3 m/s 707 mmHg 64%
    15:00 +29°C° 0 mm 3 m/s 707 mmHg 62%
    16:00 +27°C° 0,1 mm 3 m/s 707 mmHg 70%
    17:00 +25°C° 0,1 mm 2 m/s 707 mmHg 78%
    18:00 +24°C° 0,1 mm 2 m/s 708 mmHg 85%
    19:00 +23°C° 0,1 mm 2 m/s 708 mmHg 87%
    20:00 +23°C° 0,1 mm 2 m/s 709 mmHg 89%
    21:00 +23°C° 0,1 mm 2 m/s 709 mmHg 91%
    22:00 +23°C° 0,1 mm 2 m/s 709 mmHg 92%
    23:00 +23°C° 0,1 mm 2 m/s 709 mmHg 93%

    20 Décembre, Mercredi

    Heure Température Précipitation Vent Pression Humidité
    00:00 +21°C° 0,1 mm 2 m/s 708 mmHg 94%
    01:00 +23°C° 0,1 mm 2 m/s 708 mmHg 94%
    02:00 +23°C° 0,1 mm 2 m/s 708 mmHg 93%
    03:00 +23°C° 0,1 mm 2 m/s 708 mmHg 93%
    04:00 +21°C° 0 mm 2 m/s 708 mmHg 93%
    05:00 +21°C° 0 mm 2 m/s 708 mmHg 93%
    06:00 +21°C° 0 mm 2 m/s 709 mmHg 93%
    07:00 +22°C° 0 mm 3 m/s 709 mmHg 88%
    08:00 +24°C° 0 mm 3 m/s 710 mmHg 83%
    09:00 +25°C° 0 mm 4 m/s 710 mmHg 78%
    10:00 +27°C° 0 mm 4 m/s 709 mmHg 70%
    11:00 +28°C° 0 mm 4 m/s 709 mmHg 62%
    12:00 +29°C° 0 mm 4 m/s 708 mmHg 54%
    13:00 +30°C° 0 mm 4 m/s 708 mmHg 52%
    14:00 +30°C° 0 mm 4 m/s 707 mmHg 51%
    15:00 +32°C° 0 mm 4 m/s 707 mmHg 49%
    16:00 +29°C° 0 mm 4 m/s 707 mmHg 59%
    17:00 +26°C° 0 mm 3 m/s 707 mmHg 68%
    18:00 +24°C° 0 mm 2 m/s 707 mmHg 78%
    19:00 +24°C° 0 mm 2 m/s 708 mmHg 82%
    20:00 +23°C° 0 mm 2 m/s 708 mmHg 86%
    21:00 +23°C° 0 mm 2 m/s 708 mmHg 90%
    22:00 +21°C° 0 mm 2 m/s 708 mmHg 90%
    23:00 +21°C° 0 mm 2 m/s 708 mmHg 90%
    Voir plus